This demonstration page uses our WeatherBlox Daily Observations layout. Learn more.

Left ArrowRight Arrow

44.89941, -97.11507

Hourly Observations for January 1, 2021

Temp ( °F °C ) Dew Point ( °F °C ) Humidity (%) Winds ( mph kmh ) Pressure ( in mb ) Visibility ( mi km ) Precip ( " mm )
12:53 am 00:53 Clear with Mist and Fog 10 -12.2 8 -13.3 92 92 SSE 6 9 30.14 1021 5 8 0.00 0.00
1:53 am 01:53 Clear with Mist and Fog 10 -12.2 8 -13.3 92 92 S 8 13 30.14 1021 6 10 0.00 0.00
2:53 am 02:53 Clear with Mist and Fog 10 -12.2 8 -13.3 92 92 SSE 8 13 30.17 1022 6 10 0.00 0.00
3:53 am 03:53 Clear with Mist and Fog 9 -12.8 7 -13.9 92 92 S 7 11 30.16 1021 6 10 0.00 0.00
4:53 am 04:53 Clear with Mist and Fog 10 -12.2 8 -13.3 92 92 SSE 8 13 30.17 1022 6 10 0.00 0.00
5:53 am 05:53 Clear with Mist and Fog 9 -12.8 7 -13.9 92 92 Calm 30.17 1022 5 8 0.00 0.00
6:53 am 06:53 Clear with Mist and Fog 10 -12.2 7 -13.9 87 87 Calm 30.17 1022 5 8 0.00 0.00
7:53 am 07:53 Clear with Mist and Fog 7 -13.9 4 -15.6 87 87 SSW 5 7 30.19 1022 6 10 0.00 0.00
8:53 am 08:53 Sunny with Mist and Fog 7 -13.9 5 -15 91 91 NNW 5 7 30.17 1022 4 6 0.00 0.00
9:20 am 09:20 Sunny with Mist and Fog 9 -12.8 6 -14.4 88 88 NNE 5 7 30.24 1024 2 3 0.00 0.00
9:30 am 09:30 Sunny with Mist and Fog 8 -13.3 5 -15 87 87 NNE 3 6 30.24 1024 4 6 0.00 0.00
9:36 am 09:36 Partly Cloudy with Mist and Fog 8 -13.3 6 -14.4 92 92 N 3 6 30.24 1024 3 4 0.00 0.00
9:40 am 09:40 Partly Cloudy with Mist and Fog 8 -13.3 7 -13.9 95 95 Calm 30.24 1024 1 2 0.00 0.00
9:48 am 09:48 Mostly Cloudy with Mist and Fog 9 -13 9 -13 100 100 NNE 3 6 30.24 1024 1 2 0.00 0.00
9:53 am 09:53 Mostly Cloudy with Mist and Fog 10 -12.2 8 -13.3 92 92 NNE 3 6 30.17 1022 2 3 0.00 0.00
9:57 am 09:57 Partly Cloudy with Mist and Fog 11 -11.7 8 -13.3 88 88 Calm 30.23 1024 3 5 0.00 0.00
10:53 am 10:53 Sunny with Mist and Fog 16 -8.9 12 -11.1 84 84 N 3 6 30.15 1021 6 10 0.00 0.00
11:53 am 11:53 Sunny 20 -6.7 16 -8.9 85 85 N 5 7 30.12 1020 8 13 0.00 0.00
12:53 pm 12:53 Sunny 23 -5 18 -7.8 81 81 NNW 6 9 30.11 1020 10 16 0.00 0.00
1:03 pm 13:03 Partly Cloudy 23 -5 19 -7.2 85 85 N 8 13 30.13 1020 10 16 0.00 0.00
1:12 pm 13:12 Mostly Cloudy 23 -5 19 -7.2 85 85 N 6 9 30.13 1020 10 16 0.00 0.00
1:53 pm 13:53 Mostly Cloudy 24 -4.4 21 -6.1 88 88 N 6 9 30.11 1020 7 11 0.00 0.00
2:11 pm 14:11 Mostly Cloudy with Mist and Fog 24 -4.4 22 -5.6 91 91 NNW 6 9 30.12 1020 2 3 0.00 0.00
2:14 pm 14:14 Mostly Cloudy with Mist and Fog 24 -4.4 23 -5 96 96 NNW 5 7 30.12 1020 1 2 0.00 0.00
2:24 pm 14:24 Cloudy with Freezing Fog 24 -4.4 23 -5 96 96 NW 6 9 30.12 1020 0 0 0.00 0.00
2:53 pm 14:53 Mostly Cloudy with Freezing Fog 25 -3.9 24 -4.4 96 96 NNW 8 13 30.11 1020 N/A 0.00 0.00
3:53 pm 15:53 Mostly Cloudy with Freezing Fog 25 -3.9 25 -3.9 100 100 N 6 9 30.12 1020 N/A 0.00 0.00
4:53 pm 16:53 Mostly Cloudy with Freezing Fog 24 -4.4 24 -4.4 100 100 Calm 30.12 1020 N/A 0.00 0.00
5:53 pm 17:53 Mostly Cloudy with Freezing Fog 24 -4.4 23 -5 96 96 WSW 5 7 30.12 1020 0 0 0.00 0.00
6:53 pm 18:53 Mostly Cloudy with Freezing Fog 23 -5 23 -5 100 100 Calm 30.12 1020 0 0 0.00 0.00
7:53 pm 19:53 Mostly Cloudy with Freezing Fog 22 -5.6 21 -6.1 96 96 W 3 6 30.12 1020 0 0 0.00 0.00
8:53 pm 20:53 Mostly Cloudy with Freezing Fog 19 -7.2 18 -7.8 96 96 SW 3 6 30.14 1021 0 0 0.00 0.00
9:53 pm 21:53 Mostly Cloudy with Freezing Fog 18 -7.8 16 -8.9 92 92 Calm 30.12 1020 0 0 0.00 0.00
10:53 pm 22:53 Cloudy with Freezing Fog 16 -8.9 15 -9.4 96 96 Calm 30.11 1020 0 0 0.00 0.00
11:53 pm 23:53 Mostly Cloudy with Freezing Fog 15 -9.4 14 -10 95 95 Calm 30.09 1019 0 0 0.00 0.00

Powered by AerisWeather